{"data":{"norad_id":58630,"intl_designator":"2023-203N","name":"STARLINK-31084","alt_names":[],"object_type":"PAYLOAD","status":"ACTIVE","operator":null,"country":"US","launch_date":"2023-12-23","launch_site_code":"AFETR","launch_vehicle":null,"mission":null,"orbit_class":"UNKNOWN","rcs_meters":null,"size_class":null,"mass_kg":null,"dimensions":null,"purposes":["comms"],"wikipedia_slug":null,"has_3d_model":false,"image_url":null,"decayed_at":null,"tle_current":{"epoch":"2026-05-24T22:57:40.921632Z","epoch_age_seconds":74784,"freshness":"FRESH","line1":"1 58630U 23203N   26144.95672363  .00003809  00000+0  14776-3 0  9997","line2":"2 58630  43.0034 359.9706 0001246 268.5315  91.5394 15.27601056135182","mean_motion":15.27601056,"eccentricity":0.0001246,"inclination_deg":43.0034,"raan_deg":359.9706,"arg_perigee_deg":268.5315,"mean_anomaly_deg":91.5394,"bstar":0.00014776,"rev_number":13518,"period_min":94.265449368739,"perigee_km":482.13115159329,"apogee_km":483.84094345673,"semimajor_km":6861.123047525,"source":"CELESTRAK","updated_at":"2026-05-25T13:38:18.707468Z"}}}